• Processing (Info)

  • MPEC 2016-U119: 2014 US224

    The following Minor Planet Electronic Circular may be linked-to from your own Web pages, but must not otherwise be redistributed electronically.

    A form allowing access to any MPEC is at the bottom of this page.


    Read MPEC 2016-U118 Read MPEC 2016-U120


    M.P.E.C. 2016-U119                               Issued 2016 Oct. 31, 02:45 UT
    
         The Minor Planet Electronic Circulars contain information on unusual
             minor planets and routine data on comets.  They are published
        on behalf of Division F of the International Astronomical Union by the
              Minor Planet Center, Smithsonian Astrophysical Observatory,
                              Cambridge, MA 02138, U.S.A.
    
                 Prepared using the Tamkin Foundation Computer Network
    
                                  MPC@CFA.HARVARD.EDU
                URL https://www.minorplanetcenter.net/    ISSN 1523-6714
    
                                      2014 US224
    
    Additional Observations:
         K14UM4S KC2016 10 29.86815 02 27 44.73 +26 27 41.6          21.1 RqEU119104
         K14UM4S KC2016 10 30.02484 02 27 43.99 +26 27 38.5          20.8 RqEU119104
         K14UM4S KC2016 10 30.84324 02 27 40.10 +26 27 21.6          20.8 RqEU119104
         K14UM4S KC2016 10 30.94578 02 27 39.67 +26 27 18.8          20.8 RqEU119104
    
    Observer details:
    104 San Marcello Pistoiese.  Observers P. Bacci, M. Maestripieri.  Measurers
        P. Bacci, L. Tesi, G. Fagioli.  0.60-m f/4 reflector + CCD.
    
    Orbital elements:
    2014 US224
    Epoch 2016 July 31.0 TT = JDT 2457600.5                 MPC
    M 282.52586              (2000.0)            P               Q
    n   0.00307655     Peri.  178.17926     -0.72376182     -0.67812061
    a  46.8194815      Node   318.15412     +0.63066353     -0.57490026
    e   0.1397711      Incl.   11.04029     +0.28005774     -0.45786694
    P 320              H    4.7           G   0.15           U   5
    Residuals in seconds of arc
    141028 F51  0.0   0.1+    141125 F51  0.1-  0.0     141227 F51  0.1-  0.2+
    141028 F51  0.0   0.2-    141127 F51  0.0   0.0     141227 F51  0.5-  0.2+
    141028 F51  0.0   0.1-    141127 F51  0.1+  0.0     161029 104  0.4-  0.3+
    141028 F51  0.1+  0.0     141127 F51  0.0   0.0     161030 104  0.2-  0.3+
    141125 F51  0.3-  0.1+    141127 F51  0.2+  0.1+    161030 104  0.1-  0.0
    141125 F51  0.0   0.0     141227 F51  0.2+  0.1+    161030 104  0.7+  0.7-
    141125 F51  0.0   0.0     141227 F51  0.2+  0.2-
    
    Ephemeris:
    2014 US224               a,e,i = 46.82, 0.14, 11                 q = 40.275
    Date    TT    R. A. (2000) Decl.     Delta      r     Elong.  Phase     V
    2016 10 01    02 29 53.5 +26 34 47  45.4772 46.2793   142.9     0.7    21.4
    ...
    2016 10 16    02 28 49.6 +26 31 47  45.3570 46.2740   156.7     0.5    21.4
    ...
    2016 10 24    02 28 12.6 +26 29 34  45.3178 46.2712   163.3     0.4    21.4
    ...
    2016 10 30    02 27 44.1 +26 27 39  45.3006 46.2691   167.1     0.3    21.4
    2016 10 31    02 27 39.4 +26 27 18  45.2987 46.2687   167.6     0.3    21.4
    2016 11 01    02 27 34.6 +26 26 58  45.2972 46.2684   168.0     0.3    21.4
    ...
    2016 11 07    02 27 06.0 +26 24 48  45.2943 46.2662   168.6     0.2    21.4
    ...
    2016 11 15    02 26 28.6 +26 21 42  45.3072 46.2634   165.0     0.3    21.4
    ...
    2016 11 30    02 25 23.2 +26 15 26  45.3820 46.2581   152.4     0.6    21.4
    
    A. U. Tomatic                (C) Copyright 2016 MPC           M.P.E.C. 2016-U119
    

    Read MPEC 2016-U118 Read MPEC 2016-U120


    MPEC number:

    Enter an MPEC number in one of the following forms:

    • 1997-B01 (the full form)
    • J97B01 (the packed version of the full form)
    • B01 (the abbreviated form)